Time,TemperatureF,DewpointF,PressureIn,WindDirection,WindDirectionDegrees,WindSpeedMPH,WindSpeedGustMPH,Humidity,HourlyPrecipIn,Conditions,Clouds,dailyrainin,SolarRadiationWatts/m^2,SoftwareType,DateUTC
2013-11-08 00:03:00,32.0,30.0,-100.00,West,270,8.0,16.0,91,0.00,,,0.00,0.000000,,2013-11-08 05:03:00,
2013-11-08 00:13:00,32.0,30.0,-100.00,West,270,8.0,16.0,91,0.00,,,0.00,0.000000,,2013-11-08 05:13:00,
2013-11-08 00:44:00,32.0,30.0,-100.00,WNW,288,5.0,13.0,92,0.00,,,0.00,0.000000,,2013-11-08 05:44:00,
2013-11-08 00:54:00,32.0,30.0,-100.00,WNW,288,5.0,13.0,92,0.00,,,0.00,0.000000,,2013-11-08 05:54:00,
2013-11-08 01:04:00,32.0,30.0,-100.00,WNW,288,5.0,13.0,92,0.00,,,0.00,0.000000,,2013-11-08 06:04:00,
2013-11-08 01:13:00,32.0,30.0,-100.00,WNW,288,5.0,13.0,92,0.00,,,0.00,0.000000,,2013-11-08 06:13:00,
2013-11-08 01:42:00,32.0,30.0,-100.00,WNW,289,5.0,9.0,93,0.00,,,0.00,0.000000,,2013-11-08 06:42:00,
2013-11-08 01:53:00,32.0,30.0,-100.00,WNW,289,5.0,9.0,93,0.00,,,0.00,0.000000,,2013-11-08 06:53:00,
2013-11-08 02:02:00,32.0,30.0,-100.00,WNW,289,5.0,9.0,93,0.00,,,0.00,0.000000,,2013-11-08 07:02:00,
2013-11-08 02:12:00,32.0,30.0,-100.00,WNW,289,5.0,9.0,93,0.00,,,0.00,0.000000,,2013-11-08 07:12:00,
2013-11-08 02:42:00,32.0,30.0,-100.00,West,262,7.0,12.0,92,0.00,,,0.00,0.000000,,2013-11-08 07:42:00,
2013-11-08 02:52:00,32.0,30.0,-100.00,West,262,7.0,12.0,92,0.00,,,0.00,0.000000,,2013-11-08 07:52:00,
2013-11-08 03:02:00,32.0,30.0,-100.00,West,262,7.0,12.0,92,0.00,,,0.00,0.000000,,2013-11-08 08:02:00,
2013-11-08 03:12:00,32.0,30.0,-100.00,West,262,7.0,12.0,92,0.00,,,0.00,0.000000,,2013-11-08 08:12:00,
2013-11-08 03:42:00,32.0,29.0,-100.00,West,276,8.0,14.0,89,0.00,,,0.00,0.000000,,2013-11-08 08:42:00,
2013-11-08 03:52:00,32.0,29.0,-100.00,West,276,8.0,14.0,89,0.00,,,0.00,0.000000,,2013-11-08 08:52:00,
2013-11-08 04:03:00,32.0,29.0,-100.00,West,276,8.0,14.0,89,0.00,,,0.00,0.000000,,2013-11-08 09:03:00,
2013-11-08 04:12:00,32.0,29.0,-100.00,West,276,8.0,14.0,89,0.00,,,0.00,0.000000,,2013-11-08 09:12:00,
2013-11-08 04:43:00,32.0,30.0,-100.00,West,276,6.0,12.0,91,0.00,,,0.00,0.000000,,2013-11-08 09:43:00,
2013-11-08 04:54:00,32.0,30.0,-100.00,West,276,6.0,12.0,91,0.00,,,0.00,0.000000,,2013-11-08 09:54:00,
2013-11-08 05:03:00,32.0,30.0,-100.00,West,276,6.0,12.0,91,0.00,,,0.00,0.000000,,2013-11-08 10:03:00,
2013-11-08 05:13:00,32.0,30.0,-100.00,West,276,6.0,12.0,91,0.00,,,0.00,0.000000,,2013-11-08 10:13:00,
2013-11-08 05:43:00,31.0,29.0,-100.00,West,268,5.0,11.0,91,0.00,,,0.00,0.000000,,2013-11-08 10:43:00,
2013-11-08 05:53:00,31.0,29.0,-100.00,West,268,5.0,11.0,91,0.00,,,0.00,0.000000,,2013-11-08 10:53:00,
2013-11-08 06:02:00,31.0,29.0,-100.00,West,268,5.0,11.0,91,0.00,,,0.00,0.000000,,2013-11-08 11:02:00,
2013-11-08 06:12:00,31.0,29.0,-100.00,West,268,5.0,11.0,91,0.00,,,0.00,0.000000,,2013-11-08 11:12:00,
2013-11-08 06:43:00,32.0,30.0,-100.00,WSW,258,7.0,11.0,93,0.00,,,0.00,0.000000,,2013-11-08 11:43:00,
2013-11-08 06:52:00,32.0,30.0,-100.00,WSW,258,7.0,11.0,93,0.00,,,0.00,0.000000,,2013-11-08 11:52:00,
2013-11-08 07:02:00,32.0,30.0,-100.00,WSW,258,7.0,11.0,93,0.00,,,0.00,0.000000,,2013-11-08 12:02:00,
2013-11-08 07:11:00,32.0,30.0,-100.00,WSW,258,7.0,11.0,93,0.00,,,0.00,0.000000,,2013-11-08 12:11:00,
2013-11-08 07:42:00,32.0,30.0,-100.00,WNW,300,4.0,12.0,93,0.00,,,0.00,0.000000,,2013-11-08 12:42:00,
2013-11-08 07:52:00,32.0,30.0,-100.00,WNW,300,4.0,12.0,93,0.00,,,0.00,0.000000,,2013-11-08 12:52:00,
2013-11-08 08:01:00,32.0,30.0,-100.00,WNW,300,4.0,12.0,93,0.00,,,0.00,0.000000,,2013-11-08 13:01:00,
2013-11-08 08:11:00,32.0,30.0,-100.00,WNW,300,4.0,12.0,93,0.00,,,0.00,0.000000,,2013-11-08 13:11:00,
2013-11-08 08:42:00,32.0,30.0,-100.00,NW,326,0.0,5.0,93,0.00,,,0.00,11.000000,,2013-11-08 13:42:00,
2013-11-08 08:52:00,32.0,30.0,-100.00,NW,326,0.0,5.0,93,0.00,,,0.00,11.000000,,2013-11-08 13:52:00,
2013-11-08 09:02:00,32.0,30.0,-100.00,NW,326,0.0,5.0,93,0.00,,,0.00,11.000000,,2013-11-08 14:02:00,
2013-11-08 09:11:00,32.0,30.0,-100.00,NW,326,0.0,5.0,93,0.00,,,0.00,11.000000,,2013-11-08 14:11:00,
2013-11-08 09:42:00,33.0,30.0,-100.00,WSW,251,5.0,7.0,90,0.00,,,0.00,52.000000,,2013-11-08 14:42:00,
2013-11-08 09:52:00,33.0,30.0,-100.00,WSW,251,5.0,7.0,90,0.00,,,0.00,52.000000,,2013-11-08 14:52:00,
2013-11-08 10:02:00,33.0,30.0,-100.00,WSW,251,5.0,7.0,90,0.00,,,0.00,52.000000,,2013-11-08 15:02:00,
2013-11-08 10:11:00,33.0,30.0,-100.00,WSW,251,5.0,7.0,90,0.00,,,0.00,52.000000,,2013-11-08 15:11:00,
2013-11-08 10:44:00,34.0,31.0,-100.00,NW,313,5.0,11.0,88,0.00,,,0.00,174.000000,,2013-11-08 15:44:00,
2013-11-08 10:53:00,34.0,31.0,-100.00,NW,313,5.0,11.0,88,0.00,,,0.00,174.000000,,2013-11-08 15:53:00,
2013-11-08 11:03:00,34.0,31.0,-100.00,NW,313,5.0,11.0,88,0.00,,,0.00,174.000000,,2013-11-08 16:03:00,
2013-11-08 11:13:00,34.0,31.0,-100.00,NW,313,5.0,11.0,88,0.00,,,0.00,174.000000,,2013-11-08 16:13:00,
2013-11-08 11:42:00,36.0,31.0,-100.00,West,276,9.0,14.0,82,0.00,,,0.00,235.000000,,2013-11-08 16:42:00,
2013-11-08 11:53:00,36.0,31.0,-100.00,West,276,9.0,14.0,82,0.00,,,0.00,235.000000,,2013-11-08 16:53:00,
2013-11-08 12:02:00,36.0,31.0,-100.00,West,276,9.0,14.0,82,0.00,,,0.00,235.000000,,2013-11-08 17:02:00,
2013-11-08 12:12:00,36.0,31.0,-100.00,West,276,9.0,14.0,82,0.00,,,0.00,235.000000,,2013-11-08 17:12:00,
2013-11-08 12:43:00,36.0,31.0,-100.00,West,276,7.0,14.0,81,0.00,,,0.00,212.000000,,2013-11-08 17:43:00,
2013-11-08 12:53:00,36.0,31.0,-100.00,West,276,7.0,14.0,81,0.00,,,0.00,212.000000,,2013-11-08 17:53:00,
2013-11-08 13:02:00,36.0,31.0,-100.00,West,276,7.0,14.0,81,0.00,,,0.00,212.000000,,2013-11-08 18:02:00,
2013-11-08 13:12:00,36.0,31.0,-100.00,West,276,7.0,14.0,81,0.00,,,0.00,212.000000,,2013-11-08 18:12:00,
2013-11-08 13:43:00,38.0,29.0,-100.00,West,273,7.0,13.0,71,0.00,,,0.00,299.000000,,2013-11-08 18:43:00,
2013-11-08 13:53:00,38.0,29.0,-100.00,West,273,7.0,13.0,71,0.00,,,0.00,299.000000,,2013-11-08 18:53:00,
2013-11-08 14:02:00,38.0,29.0,-100.00,West,273,7.0,13.0,71,0.00,,,0.00,299.000000,,2013-11-08 19:02:00,
2013-11-08 14:12:00,38.0,29.0,-100.00,West,273,7.0,13.0,71,0.00,,,0.00,299.000000,,2013-11-08 19:12:00,
2013-11-08 14:42:00,38.0,28.0,-100.00,West,276,7.0,12.0,66,0.00,,,0.00,299.000000,,2013-11-08 19:42:00,
2013-11-08 14:53:00,38.0,28.0,-100.00,West,276,7.0,12.0,66,0.00,,,0.00,299.000000,,2013-11-08 19:53:00,
2013-11-08 15:02:00,38.0,28.0,-100.00,West,276,7.0,12.0,66,0.00,,,0.00,299.000000,,2013-11-08 20:02:00,
2013-11-08 15:12:00,38.0,28.0,-100.00,West,276,7.0,12.0,66,0.00,,,0.00,299.000000,,2013-11-08 20:12:00,
2013-11-08 15:42:00,39.0,30.0,-100.00,NW,306,5.0,12.0,69,0.00,,,0.00,219.000000,,2013-11-08 20:42:00,
2013-11-08 15:53:00,39.0,30.0,-100.00,NW,306,5.0,12.0,69,0.00,,,0.00,219.000000,,2013-11-08 20:53:00,
2013-11-08 16:02:00,39.0,30.0,-100.00,NW,306,5.0,12.0,69,0.00,,,0.00,219.000000,,2013-11-08 21:02:00,
2013-11-08 16:12:00,39.0,30.0,-100.00,NW,306,5.0,12.0,69,0.00,,,0.00,219.000000,,2013-11-08 21:12:00,
2013-11-08 17:43:00,34.0,28.0,-100.00,SW,218,0.0,4.0,79,0.00,,,0.00,22.000000,,2013-11-08 22:43:00,
2013-11-08 17:53:00,34.0,28.0,-100.00,SW,218,0.0,4.0,79,0.00,,,0.00,22.000000,,2013-11-08 22:53:00,
2013-11-08 18:03:00,34.0,28.0,-100.00,SW,218,0.0,4.0,79,0.00,,,0.00,22.000000,,2013-11-08 23:03:00,
2013-11-08 18:12:00,34.0,28.0,-100.00,SW,218,0.0,4.0,79,0.00,,,0.00,22.000000,,2013-11-08 23:12:00,
2013-11-08 18:43:00,32.0,30.0,-100.00,ENE,76,4.0,5.0,91,0.00,,,0.00,0.000000,,2013-11-08 23:43:00,
2013-11-08 18:53:00,32.0,30.0,-100.00,ENE,76,4.0,5.0,91,0.00,,,0.00,0.000000,,2013-11-08 23:53:00,
2013-11-08 19:02:00,32.0,30.0,-100.00,ENE,76,4.0,5.0,91,0.00,,,0.00,0.000000,,2013-11-09 00:02:00,
2013-11-08 19:12:00,32.0,30.0,-100.00,ENE,76,4.0,5.0,91,0.00,,,0.00,0.000000,,2013-11-09 00:12:00,
2013-11-08 19:42:00,30.0,29.0,-100.00,East,81,5.0,6.0,95,0.00,,,0.00,0.000000,,2013-11-09 00:42:00,
2013-11-08 19:52:00,30.0,29.0,-100.00,East,81,5.0,6.0,95,0.00,,,0.00,0.000000,,2013-11-09 00:52:00,
2013-11-08 20:02:00,30.0,29.0,-100.00,East,81,5.0,6.0,95,0.00,,,0.00,0.000000,,2013-11-09 01:02:00,
2013-11-08 20:11:00,30.0,29.0,-100.00,East,81,5.0,6.0,95,0.00,,,0.00,0.000000,,2013-11-09 01:11:00,
2013-11-08 20:42:00,30.0,29.0,-100.00,East,94,5.0,7.0,95,0.00,,,0.00,0.000000,,2013-11-09 01:42:00,
2013-11-08 20:52:00,30.0,29.0,-100.00,East,94,5.0,7.0,95,0.00,,,0.00,0.000000,,2013-11-09 01:52:00,
2013-11-08 21:02:00,30.0,29.0,-100.00,East,94,5.0,7.0,95,0.00,,,0.00,0.000000,,2013-11-09 02:02:00,
2013-11-08 21:12:00,30.0,29.0,-100.00,East,94,5.0,7.0,95,0.00,,,0.00,0.000000,,2013-11-09 02:12:00,
2013-11-08 21:42:00,30.0,28.0,-100.00,East,99,4.0,8.0,94,0.00,,,0.00,0.000000,,2013-11-09 02:42:00,
2013-11-08 21:52:00,30.0,28.0,-100.00,East,99,4.0,8.0,94,0.00,,,0.00,0.000000,,2013-11-09 02:52:00,
2013-11-08 22:02:00,30.0,28.0,-100.00,East,99,4.0,8.0,94,0.00,,,0.00,0.000000,,2013-11-09 03:02:00,
2013-11-08 22:12:00,30.0,28.0,-100.00,East,99,4.0,8.0,94,0.00,,,0.00,0.000000,,2013-11-09 03:12:00,
2013-11-08 22:44:00,32.0,30.0,-100.00,ESE,108,6.0,7.0,91,0.00,,,0.00,0.000000,,2013-11-09 03:44:00,
2013-11-08 22:54:00,32.0,30.0,-100.00,ESE,108,6.0,7.0,91,0.00,,,0.00,0.000000,,2013-11-09 03:54:00,
2013-11-08 23:04:00,32.0,30.0,-100.00,ESE,108,6.0,7.0,91,0.00,,,0.00,0.000000,,2013-11-09 04:04:00,
2013-11-08 23:13:00,32.0,30.0,-100.00,ESE,108,6.0,7.0,91,0.00,,,0.00,0.000000,,2013-11-09 04:13:00,
2013-11-08 23:43:00,33.0,30.0,-100.00,ESE,118,5.0,8.0,90,0.00,,,0.00,0.000000,,2013-11-09 04:43:00,
2013-11-08 23:54:00,33.0,30.0,-100.00,ESE,118,5.0,8.0,90,0.00,,,0.00,0.000000,,2013-11-09 04:54:00,